[[{"header":{"parameterUnit":"m.s-1","parameterCategory":1,"la1":30.2991,"la2":30.254,"lo1":-89.0895,"lo2":-89.0444,"dy":0.0017,"dx":0.0017,"nx":28,"ny":28,"refTime":"2024-10-15T21:00:00:Z","depth":0,"parameterNumber":2,"parameterNumberName":"U-component_of_WINDS"},"data":[0,0,0,0,0,0,0,0,0,0,0,0,0,0,0,0,0,0,0,0,0,0,0,0,0,0,0,0,0,0,0,0,0,0,0,0,0,0,0,0,0,0,0,0,0,0,0,0,0,0,0,0,0,0,0,0,0,0,-4.0367,-4.0367,0,-4.0382,-4.0382,-4.0382,-4.0197,-4.0192,-4.0187,-4.0182,-4.0199,-4.0204,-4.0209,0,0,0,0,0,0,0,0,0,0,0,0,0,-4.0179,-4.0184,-4.0367,-4.0367,-4.0367,-4.0382,-4.0382,-4.0382,-4.0198,-4.0192,-4.0186,-4.018,-4.0197,-4.0203,-4.021,0,0,0,0,0,0,0,0,0,0,0,0,0,-4.0234,-4.0185,-4.0367,-4.0277,-4.0269,-4.0382,-4.0382,-4.0382,-4.0199,-4.0192,-4.0184,-4.0177,-4.0195,-4.0203,-4.021,-4.041,0,0,-4.0234,-4.0238,0,0,0,0,0,0,0,0,-4.0232,-4.0241,-4.029,-4.0283,-4.0275,-4.028,-4.0322,-4.0392,-4.0201,-4.0226,-4.0182,-4.0173,-4.0232,-4.0236,-4.0256,-4.0411,-4.0412,-4.0235,-4.024,-4.0243,-4.0245,0,0,0,0,0,0,0,-4.0228,-4.024,-4.0373,-4.0291,-4.0282,-4.0236,-4.0236,-4.0334,-4.0272,-4.0223,-4.021,-4.0214,-4.0226,-4.0249,-4.0255,-4.0412,-4.0235,-4.0242,-4.0246,-4.0249,-4.0731,-4.0739,0,0,0,0,0,0,-4.0236,-4.0238,-4.0372,-4.0373,-4.0234,-4.0246,-4.0245,-4.0286,-4.027,-4.026,-4.022,-4.0205,-4.0239,-4.0246,-4.0255,-4.0487,-4.0243,-4.025,-4.0255,-4.0723,-4.0733,-4.0741,0,0,0,0,0,0,-4.0233,-4.025,-4.0372,-4.0302,-4.0314,-4.0257,-4.0304,-4.029,-4.0312,-4.0268,-4.0256,-4.0255,-4.0234,-4.0244,-4.0373,-4.0485,-4.0254,-4.0261,-4.0713,-4.0726,-4.0737,-4.0955,0,0,0,0,0,0,-4.0228,-4.025,-4.0325,-4.0305,-4.0318,-4.049,-4.0311,-4.0296,-4.0326,-4.0306,-4.0297,-4.0288,-4.0228,-4.0362,-4.038,-4.0492,-4.0267,-4.0703,-4.0719,-4.0733,-4.0937,-4.0973,-4.1003,0,0,0,0,0,-4.0222,-4.0387,-4.033,-4.0347,-4.0411,-4.0497,-4.0504,-4.0432,-4.0336,-4.0411,-4.0382,-4.0288,-4.047,-4.0377,-4.0396,-4.0511,-4.0695,-4.0714,-4.0732,-4.0922,-4.0966,-4.1003,0,0,0,0,0,0,-4.0423,-4.0382,-4.0319,-4.0482,-4.0494,-4.0465,-4.0558,-4.0481,-4.0521,-4.0501,-4.041,-4.0409,-4.0553,-4.0544,-4.0442,-4.0703,-4.0566,-4.0589,-4.0704,-4.0745,-4.0777,-4.0777,-4.0273,0,0,0,0,0,-4.0485,-4.0558,-4.0519,-4.0666,-4.0675,-4.0617,-4.0651,-4.0594,-4.0603,-4.0608,-4.0588,-4.0601,-4.066,-4.0702,-4.0754,-4.0934,-4.093,-4.1023,-4.1056,-4.1084,-4.1105,-4.1199,-4.124,-4.0802,-4.0801,-4.0801,0,0,-4.0617,-4.0604,-4.0655,-4.0706,-4.0709,-4.0786,-4.0622,-4.0711,-4.0767,-4.0621,-4.0741,-4.0728,-4.0736,-4.0891,-4.0959,-4.0889,-4.1225,-4.1107,-4.1129,-4.1136,-4.1222,-4.1264,-4.1301,-4.0814,-4.0812,-4.081,0,0,-4.0895,-4.0893,-4.1015,-4.1021,-4.1026,-4.0986,-4.1015,-4.0998,-4.0983,-4.1102,-4.0994,-4.106,-4.1165,-4.1175,-4.1194,-4.1475,-4.139,-4.1495,-4.1668,-4.1761,-4.1795,-4.1826,-4.1926,-4.1963,-4.1516,-4.1516,-4.1517,0,-4.1058,-4.1169,-4.1087,-4.1183,-4.1209,-4.1079,-4.1202,-4.1212,-4.1235,-4.1256,-4.1177,-4.1305,-4.1301,-4.1457,-4.1526,-4.1545,-4.1576,-4.1496,-4.1797,-4.1826,-4.1853,-4.1948,-4.1986,-4.1529,-4.1527,-4.1526,-4.1525,0,-4.1369,-4.1448,-4.1546,-4.1571,-4.1607,-4.1717,-4.1651,-4.1698,-4.1638,-4.1606,-4.1728,-4.1719,-4.1767,-4.1799,-4.1742,-4.1947,-4.1904,-4.1813,-4.1672,-4.1909,-4.1997,-4.2033,-4.1547,-4.1543,-4.1539,-4.1536,0,0,-4.1776,-4.1753,-4.179,-4.18,-4.1796,-4.1856,-4.1959,-4.2005,-4.2047,-4.2067,-4.2151,-4.2242,-4.2157,-4.2179,-4.2121,-4.2203,-4.2426,-4.2101,-4.2099,-4.2162,-4.2652,-4.2721,-4.2765,-4.2369,-4.2376,-4.2381,-4.2651,0,-4.2047,-4.2221,-4.215,-4.2331,-4.2403,-4.228,-4.2369,-4.2377,-4.235,-4.2407,-4.2375,-4.2442,-4.2325,-4.2337,-4.2412,-4.2383,-4.2523,-4.2362,-4.2447,-4.2451,-4.245,-4.281,-4.2884,-4.314,-4.2685,-4.2691,-4.2695,0,-4.2387,-4.242,-4.2609,-4.2591,-4.2619,-4.2701,-4.2737,-4.2793,-4.2799,-4.2773,-4.2797,-4.272,-4.282,-4.268,-4.2816,-4.2708,-4.2738,-4.2729,-4.2737,-4.2743,-4.2588,-4.2827,-4.322,-4.3259,-4.2748,-4.2744,-4.274,0,-4.2665,-4.2757,-4.2881,-4.2893,-4.2876,-4.2936,-4.2932,-4.293,-4.2962,-4.2994,-4.3014,-4.3057,-4.3082,-4.3117,-4.3054,-4.2958,-4.3199,-4.3054,-4.3181,-4.3183,-4.3238,-4.3236,-4.3642,-4.3257,-4.3257,-4.3256,-4.3255,0,-4.2976,-4.3096,-4.3006,-4.3083,-4.3213,-4.3129,-4.3261,-4.3243,-4.3243,-4.3314,-4.321,-4.3279,-4.3191,-4.3251,-4.3203,-4.3323,-4.3335,-4.3317,-4.3303,-4.3327,-4.3329,-4.3346,-4.3326,-4.3266,-4.3264,-4.3262,-4.326,0,-4.3309,-4.3254,-4.3381,-4.3354,-4.335,-4.3448,-4.3424,-4.3494,-4.3458,-4.3549,-4.3566,-4.3511,-4.3577,-4.3517,-4.358,-4.3547,-4.3708,-4.3667,-4.3706,-4.3695,-4.3825,-4.3814,-4.4257,-4.4311,-4.3892,-4.3896,-4.3899,0,-4.3512,-4.3601,-4.3583,-4.3623,-4.3625,-4.3691,-4.3722,-4.3643,-4.3681,-4.3694,-4.3762,-4.3819,-4.386,-4.3971,-4.3937,-4.3984,-4.3944,-4.4096,-4.3951,-4.3972,-4.3947,-4.3943,-4.3951,-4.4127,-4.4132,-4.4136,-4.4139,0,-4.3877,-4.3844,-4.3894,-4.3935,-4.3976,-4.4004,-4.4024,-4.4063,-4.3981,-4.4029,-4.4094,-4.4126,-4.419,-4.4248,-4.4284,-4.4279,-4.4197,-4.4185,-4.4217,-4.4242,-4.4261,-4.4253,-4.3787,-4.4175,-4.4172,-4.4169,-4.4167,-4.4166,-4.4151,-4.4224,-4.4223,-4.4282,-4.4288,-4.4309,-4.4373,-4.4345,-4.4398,-4.4444,-4.4394,-4.4474,-4.4476,-4.4516,-4.4522,-4.4583,-4.4519,-4.4566,-4.4578,-4.459,-4.461,-4.4251,-4.459,-4.4588,-4.4587,-4.4586,-4.4586,0,-4.451,-4.4503,-4.4558,-4.4589,-4.4636,-4.4552,-4.457,-4.4614,-4.4686,-4.4695,-4.4737,-4.4812,-4.4867,-4.4837,-4.4885,-4.494,-4.4903,-4.4955,-4.495,-4.4951,-4.4664,-4.4631,-4.4984,-4.4984,-4.4984,-4.4984,-4.4984,-4.4984,-4.4703,-4.4823,-4.479,-4.4912,-4.4903,-4.4981,-4.4998,-4.5017,-4.5023,-4.5112,-4.5157,-4.5136,-4.513,-4.5176,-4.5223,-4.5212,-4.5235,-4.5301,-4.5277,-4.501,-4.4971,-4.4934,-4.4903,-4.5306,-4.5307,-4.5558,-4.5561,-4.5563]},{"header":{"parameterUnit":"m.s-1","parameterCategory":1,"la1":30.2991,"la2":30.254,"lo1":-89.0895,"lo2":-89.0444,"dy":0.0017,"dx":0.0017,"nx":28,"ny":28,"refTime":"2024-10-15T21:00:00:Z","depth":0,"parameterNumber":3,"parameterNumberName":"V-component_of_WINDS"},"data":[0,0,0,0,0,0,0,0,0,0,0,0,0,0,0,0,0,0,0,0,0,0,0,0,0,0,0,0,0,0,0,0,0,0,0,0,0,0,0,0,0,0,0,0,0,0,0,0,0,0,0,0,0,0,0,0,0,0,-6.1324,-6.1324,0,-6.1382,-6.1383,-6.1384,-6.1274,-6.1271,-6.1267,-6.1264,-6.1319,-6.1324,-6.1329,0,0,0,0,0,0,0,0,0,0,0,0,0,-6.1111,-6.1116,-6.1324,-6.1324,-6.1325,-6.1382,-6.1383,-6.1384,-6.1275,-6.1271,-6.1266,-6.1262,-6.1318,-6.1323,-6.1329,0,0,0,0,0,0,0,0,0,0,0,0,0,-6.119,-6.1117,-6.1324,-6.1278,-6.1274,-6.1382,-6.1383,-6.1384,-6.1276,-6.1271,-6.1265,-6.126,-6.1316,-6.1323,-6.133,-6.1483,0,0,-6.1352,-6.1355,0,0,0,0,0,0,0,0,-6.1186,-6.1198,-6.1284,-6.1281,-6.1278,-6.1316,-6.1328,-6.1417,-6.1277,-6.1275,-6.1264,-6.1257,-6.1322,-6.1328,-6.1351,-6.1486,-6.1488,-6.1353,-6.1357,-6.136,-6.1362,0,0,0,0,0,0,0,-6.118,-6.1195,-6.1347,-6.1285,-6.1281,-6.1252,-6.1258,-6.1345,-6.1328,-6.1275,-6.1267,-6.1276,-6.1319,-6.1345,-6.1352,-6.1489,-6.1353,-6.1359,-6.1363,-6.1366,-6.175,-6.1755,0,0,0,0,0,0,-6.1181,-6.1191,-6.1345,-6.1348,-6.1217,-6.1261,-6.1266,-6.1309,-6.1327,-6.1325,-6.1281,-6.1271,-6.1335,-6.1343,-6.1353,-6.1532,-6.136,-6.1367,-6.1371,-6.1744,-6.1751,-6.1757,0,0,0,0,0,0,-6.1177,-6.1196,-6.1342,-6.1268,-6.1284,-6.127,-6.1319,-6.1313,-6.1338,-6.1331,-6.1327,-6.131,-6.1331,-6.1343,-6.1452,-6.1533,-6.137,-6.1377,-6.1737,-6.1746,-6.1754,-6.1893,0,0,0,0,0,0,-6.1172,-6.1195,-6.1255,-6.127,-6.1289,-6.1442,-6.1324,-6.1318,-6.1351,-6.1339,-6.1358,-6.1355,-6.1327,-6.1441,-6.1459,-6.154,-6.1383,-6.173,-6.1741,-6.1751,-6.1881,-6.1905,-6.1926,0,0,0,0,0,-6.1164,-6.1291,-6.1259,-6.1278,-6.1363,-6.1447,-6.1457,-6.1424,-6.1359,-6.1417,-6.1412,-6.1355,-6.1521,-6.1453,-6.1472,-6.1556,-6.1724,-6.1738,-6.1751,-6.1871,-6.19,-6.1926,0,0,0,0,0,0,-6.1285,-6.1292,-6.1256,-6.1392,-6.142,-6.1429,-6.1502,-6.1457,-6.1503,-6.1489,-6.1444,-6.1449,-6.1566,-6.1572,-6.1496,-6.1704,-6.1611,-6.1629,-6.1696,-6.1725,-6.1747,-6.1742,-6.1389,0,0,0,0,0,-6.1328,-6.1397,-6.1399,-6.1519,-6.1535,-6.1516,-6.1551,-6.1523,-6.155,-6.156,-6.1563,-6.159,-6.1647,-6.1686,-6.1739,-6.1882,-6.1882,-6.1949,-6.1971,-6.199,-6.2005,-6.2078,-6.2107,-6.18,-6.18,-6.18,0,0,-6.1416,-6.1429,-6.1475,-6.1543,-6.1561,-6.1632,-6.1527,-6.1606,-6.1657,-6.1572,-6.1674,-6.1678,-6.1704,-6.1829,-6.1885,-6.1838,-6.209,-6.2006,-6.2021,-6.2026,-6.2094,-6.2123,-6.2149,-6.1809,-6.1808,-6.1806,0,0,-6.1613,-6.1631,-6.1731,-6.1752,-6.1781,-6.1768,-6.1792,-6.1807,-6.1806,-6.1909,-6.1846,-6.1905,-6.2006,-6.2027,-6.205,-6.2254,-6.2202,-6.2272,-6.239,-6.2461,-6.2486,-6.2507,-6.2577,-6.2603,-6.2288,-6.2288,-6.2288,0,-6.1719,-6.1825,-6.1788,-6.1872,-6.1903,-6.183,-6.193,-6.1951,-6.1995,-6.2017,-6.1965,-6.2089,-6.2101,-6.223,-6.2279,-6.2302,-6.2326,-6.2269,-6.2485,-6.2506,-6.2525,-6.2592,-6.2619,-6.2296,-6.2295,-6.2294,-6.2294,0,-6.1952,-6.2026,-6.2103,-6.2149,-6.2189,-6.228,-6.2256,-6.23,-6.2268,-6.226,-6.2363,-6.2376,-6.2429,-6.2458,-6.2427,-6.2581,-6.2551,-6.2493,-6.2398,-6.2563,-6.2625,-6.2651,-6.2308,-6.2305,-6.2303,-6.2301,0,0,-6.2226,-6.2251,-6.228,-6.2299,-6.2325,-6.238,-6.2467,-6.2521,-6.2558,-6.2591,-6.2661,-6.2749,-6.2694,-6.2721,-6.2692,-6.2756,-6.2913,-6.2689,-6.2689,-6.2729,-6.3081,-6.3124,-6.3154,-6.288,-6.2884,-6.2888,-6.3078,0,-6.242,-6.2572,-6.2541,-6.2689,-6.2755,-6.2686,-6.2762,-6.2785,-6.2779,-6.2833,-6.2826,-6.2887,-6.2812,-6.2828,-6.2888,-6.2882,-6.2983,-6.2868,-6.2942,-6.2945,-6.2936,-6.3187,-6.3232,-6.3411,-6.3102,-6.3106,-6.3109,0,-6.2667,-6.271,-6.2865,-6.2879,-6.2905,-6.2974,-6.3019,-6.3073,-6.3096,-6.3087,-6.3118,-6.3076,-6.316,-6.3066,-6.3179,-6.3101,-6.313,-6.3131,-6.3137,-6.3142,-6.3036,-6.3196,-6.3468,-6.3494,-6.3148,-6.3144,-6.3142,0,-6.2849,-6.2945,-6.305,-6.3069,-6.3088,-6.3138,-6.3148,-6.3166,-6.32,-6.3239,-6.326,-6.3308,-6.3334,-6.3371,-6.3343,-6.3277,-6.3461,-6.3364,-6.3454,-6.3455,-6.3494,-6.3492,-6.3773,-6.3516,-6.3516,-6.3515,-6.3515,0,-6.3068,-6.3164,-6.3132,-6.3196,-6.3302,-6.3264,-6.3369,-6.3371,-6.3388,-6.3449,-6.3393,-6.3451,-6.3411,-6.3466,-6.3444,-6.354,-6.3553,-6.3546,-6.3539,-6.3551,-6.3551,-6.3567,-6.3554,-6.3522,-6.3521,-6.3519,-6.3518,0,-6.3289,-6.3271,-6.338,-6.339,-6.3394,-6.3472,-6.3478,-6.3537,-6.3527,-6.3605,-6.3621,-6.3605,-6.3666,-6.3642,-6.3707,-6.3692,-6.3815,-6.3792,-6.3807,-6.3801,-6.3891,-6.3882,-6.419,-6.4228,-6.3949,-6.3952,-6.3954,0,-6.3429,-6.3502,-6.3519,-6.3557,-6.3571,-6.3633,-6.3667,-6.3633,-6.367,-6.3702,-6.3756,-6.3813,-6.3856,-6.3956,-6.3949,-6.3998,-6.3974,-6.4079,-6.3981,-6.399,-6.3974,-6.3969,-6.3975,-6.4098,-6.4102,-6.4104,-6.4106,0,-6.3678,-6.3666,-6.3718,-6.3767,-6.3809,-6.3846,-6.3877,-6.3911,-6.3877,-6.3922,-6.3984,-6.4018,-6.4084,-6.414,-6.4183,-6.4191,-6.4143,-6.4138,-6.416,-6.4172,-6.4177,-6.4174,-6.3859,-6.413,-6.4128,-6.4126,-6.4125,-6.4124,-6.3861,-6.3922,-6.3944,-6.4003,-6.4023,-6.4054,-6.4108,-6.4105,-6.4158,-6.4209,-6.4185,-6.4257,-6.4277,-6.433,-6.4345,-6.4399,-6.4358,-6.4391,-6.4399,-6.4408,-6.4419,-6.417,-6.4407,-6.4406,-6.4405,-6.4405,-6.4404,0,-6.4106,-6.4117,-6.4172,-6.4218,-6.4264,-6.4216,-6.4248,-6.4289,-6.4353,-6.4377,-6.442,-6.4491,-6.4545,-6.4542,-6.4591,-6.4635,-6.4614,-6.4649,-6.4644,-6.4646,-6.4454,-6.4428,-6.4665,-6.4665,-6.4665,-6.4665,-6.4665,-6.4665,-6.4239,-6.4339,-6.4329,-6.4437,-6.4446,-6.4517,-6.4539,-6.4566,-6.4584,-6.4666,-6.4711,-6.4709,-6.4721,-6.477,-6.4817,-6.4814,-6.4834,-6.4877,-6.4866,-6.4686,-6.466,-6.4635,-6.4611,-6.4882,-6.4882,-6.5054,-6.5055,-6.5056]}]]